Weather History for Naples, FL

Change the Weather History Date:

Friday, November 16, 2012

  Actual Average Record
Temperature  
Mean Temperature 69 °F 72 °F  
Max Temperature 75 °F 81 °F 91 °F (1988)
Min Temperature 63 °F 63 °F 40 °F (1969)
Degree Days  
Heating Degree Days 0 0  
Month to date heating degree days 3 0  
Since 1 July heating degree days 4 1  
Cooling Degree Days 4 7  
Month to date cooling degree days 83 138  
Year to date cooling degree days 3924 3733  
Growing Degree Days 18 (Base 50)    
Moisture  
Dew Point 62 °F    
Average Humidity 84    
Maximum Humidity 100    
Minimum Humidity 68    
Precipitation  
Precipitation 0.00 in 0.06 in 2.18 in (2002)
Month to date precipitation 0.12 1.29  
Year to date precipitation 36.15 49.69  
Snow  
Snow 0.00 in - - ()
Month to date snowfall 0.0  
Since 1 July snowfall 0.0  
Since 1 September snowfall 0.0  
Snow Depth 0.00 in    
Sea Level Pressure  
Sea Level Pressure 30.09 in    
Wind  
Wind Speed 7 mph (NNE)    
Max Wind Speed 15 mph    
Max Gust Speed 17 mph    
Visibility 9 miles    
Events      
T = Trace of Precipitation, MM = Missing Value Source: NWS Daily Summary

Daily Weather History Graph

Daily Weather History Graph

Search for Another Location

Airport:

Trip Planner

Search our weather history database for the weather conditions in past years. The results will help you decide how hot, cold, wet, or windy it might be!

Date:

Astronomy

Nov. 16, 2012 Rise Set
Actual Time 6:46 AM EST 5:37 PM EST
Civil Twilight 6:22 AM EST 6:01 PM EST
Nautical Twilight 5:54 AM EST 6:29 PM EST
Astronomical Twilight 5:26 AM EST 6:56 PM EST
Moon 9:35 AM EST (11/16) 8:38 PM EST (11/16)
Length of Visible Light 11h 39m
Length of Day
10h 50m
Waxing Crescent, 11% of the Moon is Illuminated
Nov 16
Waxing Crescent
Nov 20
First Quarter
Nov 28
Full
Dec 6
Last Quarter
Dec 13
New

Hourly Weather History & Observations

Time (EST) Temp. Dew Point Humidity Pressure Visibility Wind Dir Wind Speed Gust Speed Precip Events Conditions
12:53 AM 64.9 °F 64.9 °F 100% 30.09 in 8.0 mi NE 6.9 mph - N/A   Overcast
1:53 AM 64.9 °F 64.0 °F 97% 30.08 in 8.0 mi NE 10.4 mph - N/A   Overcast
2:42 AM 64.4 °F 62.6 °F 94% 30.09 in 10.0 mi NNE 5.8 mph - N/A   Mostly Cloudy
2:53 AM 64.0 °F 63.0 °F 96% 30.09 in 10.0 mi NNE 5.8 mph - N/A   Mostly Cloudy
3:53 AM 64.9 °F 63.0 °F 93% 30.09 in 10.0 mi North 5.8 mph - N/A   Overcast
4:53 AM 64.0 °F 62.1 °F 93% 30.09 in 10.0 mi North 4.6 mph - N/A   Scattered Clouds
5:25 AM 64.4 °F 62.6 °F 94% 30.09 in 10.0 mi NNE 6.9 mph - N/A   Mostly Cloudy
5:53 AM 64.0 °F 62.1 °F 93% 30.09 in 10.0 mi North 6.9 mph - N/A   Overcast
6:53 AM 63.0 °F 61.0 °F 93% 30.09 in 10.0 mi North 5.8 mph - N/A   Overcast
7:50 AM 62.6 °F 60.8 °F 94% 30.11 in 9.0 mi NNE 8.1 mph - N/A   Overcast
7:53 AM 63.0 °F 61.0 °F 93% 30.11 in 9.0 mi NNE 11.5 mph - N/A   Overcast
8:53 AM 63.0 °F 61.0 °F 93% 30.12 in 8.0 mi NE 9.2 mph - N/A   Overcast
9:53 AM 63.0 °F 61.0 °F 93% 30.12 in 8.0 mi ENE 11.5 mph - N/A   Overcast
10:53 AM 64.9 °F 62.1 °F 90% 30.12 in 9.0 mi ENE 10.4 mph - N/A   Overcast
11:45 AM 66.2 °F 62.6 °F 88% 30.11 in 10.0 mi NNE 6.9 mph - N/A   Mostly Cloudy
11:53 AM 68.0 °F 62.1 °F 81% 30.11 in 10.0 mi North 8.1 mph - N/A   Mostly Cloudy
12:15 PM 69.8 °F 62.6 °F 78% 30.11 in 10.0 mi NE 5.8 mph - N/A   Partly Cloudy
12:53 PM 72.0 °F 62.1 °F 71% 30.09 in 10.0 mi North 8.1 mph - N/A   Partly Cloudy
1:53 PM 73.0 °F 62.1 °F 68% 30.06 in 10.0 mi North 6.9 mph - N/A   Clear
2:53 PM 73.0 °F 63.0 °F 71% 30.05 in 10.0 mi NW 3.5 mph - N/A   Clear
3:53 PM 73.0 °F 63.0 °F 71% 30.05 in 10.0 mi NNE 8.1 mph - N/A   Clear
4:53 PM 69.1 °F 62.1 °F 78% 30.04 in 9.0 mi NNE 11.5 mph - N/A   Partly Cloudy
5:53 PM 66.9 °F 61.0 °F 81% 30.06 in 10.0 mi NNE 5.8 mph - N/A   Clear
6:53 PM 66.0 °F 61.0 °F 84% 30.08 in 9.0 mi NNE 5.8 mph - N/A   Clear
7:53 PM 66.0 °F 61.0 °F 84% 30.09 in 9.0 mi NNE 5.8 mph - N/A   Scattered Clouds
8:53 PM 64.9 °F 60.1 °F 84% 30.08 in 8.0 mi NNE 5.8 mph - N/A   Clear
9:53 PM 64.9 °F 61.0 °F 87% 30.09 in 9.0 mi NNE 6.9 mph - N/A   Clear
10:53 PM 64.0 °F 61.0 °F 90% 30.08 in 10.0 mi NNE 8.1 mph - N/A   Partly Cloudy
11:53 PM 64.0 °F 61.0 °F 90% 30.08 in 10.0 mi NNE 5.8 mph - N/A   Scattered Clouds